Regional Weather Roundup
Issued by NWS

Home | Current Version | Previous Version | Graphics & Text | Print | Product List | Glossary On
Versions: 1 2 3 4 5 6 7 8 9 10 11 12 13 14 15 16 17 18 19 20 21 22 23 24 25 26 27 28 29 30 31 32 33 34 35 36 37 38 39 40 41 42 43 44 45 46 47 48 49 50
000
ASUS43 KOAX 241710
RWRNE

WEATHER ROUNDUP FOR NEBRASKA
NATIONAL WEATHER SERVICE OMAHA NE
1200 PM CDT FRI APR 24 2015

NOTES: SATELLITE DATA IS BEING USED TO AUGMENT CLOUD COVER ABOVE
       12000 FEET.
       "FAIR" INDICATES FEW OR NO CLOUDS BELOW 12,000 FEET WITH NO
       SIGNIFICANT WEATHER AND/OR OBSTRUCTIONS TO VISIBILITY.

  * THESE STATIONS DO NOT REPORT WEATHER SUCH AS RAIN...SNOW OR FOG.

NEZ001>004-019>022-054>056-241800-
NEBRASKA PANHANDLE

CITY           SKY/WX    TMP DP  RH WIND       PRES   REMARKS
SCOTTSBLUFF    MOSUNNY   64  38  38 W7        29.65F
ALLIANCE       MOSUNNY   62  39  42 NW10      29.63F
CHADRON        MOSUNNY   63  43  48 NW9       29.61F
KIMBALL        MOSUNNY   64  34  32 NW13G21   29.66F
SIDNEY         SUNNY     65  39  38 NW12      29.67F
$$

NEZ057>060-069>072-079>082-241800-
SOUTHWEST NEBRASKA

CITY           SKY/WX    TMP DP  RH WIND       PRES   REMARKS
IMPERIAL       MOSUNNY   61  49  64 CALM      29.64F
LEXINGTON      PTSUNNY   64  56  76 S6        29.65F
MCCOOK         CLOUDY    66  54  65 S8        29.64S
OGALLALA       MOSUNNY   59  53  81 CALM      29.64F
$$

NEZ005>010-023>029-035>040-094-241800-
NORTH CENTRAL NEBRASKA

CITY           SKY/WX    TMP DP  RH WIND       PRES   REMARKS
VALENTINE      MOSUNNY   68  41  37 W6        29.58F
AINSWORTH      MOSUNNY   69  46  43 SW12      29.59F
BROKEN BOW     PTSUNNY   66  53  63 S14G24    29.64F
O`NEILL        SUNNY     71  53  52 SW15G22   29.60F
ORD            SUNNY     66  52  60 SW12      29.63F
THEDFORD       MOSUNNY   70  46  42 W3G17     29.62F
$$

NEZ041-046>049-061>064-073>077-083>087-241800-
SOUTH CENTRAL NEBRASKA

CITY           SKY/WX    TMP DP  RH WIND       PRES   REMARKS
GRAND ISLAND   CLOUDY    58  53  84 S10       29.69F
AURORA         CLOUDY    57  55  93 S9        29.69F
HASTINGS       CLOUDY    58  55  90 S7        29.67F
HEBRON         CLOUDY    59  53  79 S6        29.70F
HOLDREGE       CLOUDY    58  56  91 S6        29.66F FOG
KEARNEY *      CLOUDY    59  55  88 S8        29.67F
YORK           CLOUDY    57  54  88 S12       29.70F
$$

NEZ011>018-030>034-042>045-241800-
NORTHEAST NEBRASKA

CITY           SKY/WX    TMP DP  RH WIND       PRES   REMARKS
NORFOLK        SUNNY     68  53  58 S16G23    29.65F
ALBION         PTSUNNY   64  52  65 S15       29.66F
BLAIR          CLOUDY    61  49  64 S17       29.71F
COLUMBUS *     CLOUDY    63  52  67 S13G18    29.70F
FREMONT        CLOUDY    63  52  67 S10G17    29.71F
TEKAMAH        MOSUNNY   67  52  58 S21G28    29.70F
WAYNE          SUNNY     68  52  56 SW15G21   29.66F
$$

NEZ050>053-065>068-078-088>093-241800-
SOUTHEAST NEBRASKA

CITY           SKY/WX    TMP DP  RH WIND       PRES   REMARKS
LINCOLN        CLOUDY    61  52  72 S12       29.71F
OMAHA EPPLEY   CLOUDY    61  49  64 S15       29.72F
BEATRICE       CLOUDY    61  53  75 S12       29.71F
FALLS CITY     CLOUDY    59  48  67 S14       29.75F
NEBRASKA CITY  CLOUDY    62  46  57 S14       29.73F
PLATTSMOUTH    CLOUDY    61  48  60 S10       29.73F
$$

NEZ044-045-051>053-067-241800-
OMAHA AREA

CITY           SKY/WX    TMP DP  RH WIND       PRES   REMARKS
OMAHA EPPLEY   CLOUDY    61  49  64 S15       29.72F
BLAIR          CLOUDY    61  49  64 S17       29.71F
FREMONT        CLOUDY    63  52  67 S10G17    29.71F
MILLARD        CLOUDY    60  51  69 SE10      29.72F
OFFUTT AFB     CLOUDY    60  50  71 S14       29.72F
PLATTSMOUTH    CLOUDY    61  48  60 S10       29.73F
WAHOO          CLOUDY    62  51  67 S12       29.70F
$$



USA.gov is the U.S. government's official web portal to all federal, state and local government web resources and services.